{"data":{"norad_id":61614,"intl_designator":"2024-189A","name":"TIANPING 3A-01","alt_names":[],"object_type":"PAYLOAD","status":"ACTIVE","operator":null,"country":"PRC","launch_date":"2024-10-22","launch_site_code":"TAISC","launch_vehicle":null,"mission":null,"orbit_class":"UNKNOWN","rcs_meters":null,"size_class":null,"mass_kg":null,"dimensions":null,"purposes":[],"wikipedia_slug":null,"has_3d_model":false,"image_url":null,"decayed_at":null,"tle_current":{"epoch":"2026-05-25T04:21:08.519040Z","epoch_age_seconds":66357,"freshness":"FRESH","line1":"1 61614U 24189A   26145.18134860  .00002688  00000+0  21503-3 0  9998","line2":"2 61614  97.5221 166.1384 0003111  70.1770 289.9789 15.01010403 87038","mean_motion":15.01010403,"eccentricity":0.0003111,"inclination_deg":97.5221,"raan_deg":166.1384,"arg_perigee_deg":70.177,"mean_anomaly_deg":289.9789,"bstar":0.00021503,"rev_number":8703,"period_min":95.935377737685,"perigee_km":561.61967289679,"apogee_km":565.93893322055,"semimajor_km":6941.9163030587,"source":"CELESTRAK","updated_at":"2026-05-25T13:38:02.452909Z"}}}